Time,TemperatureF,DewpointF,PressureIn,WindDirection,WindDirectionDegrees,WindSpeedMPH,WindSpeedGustMPH,Humidity,HourlyPrecipIn,Conditions,Clouds,dailyrainin,SoftwareType,DateUTC
2013-06-02 00:01:00,74.1,66.8,29.88,East,98,0.0,0.0,78,0.00,,---,0.00,VWS V14.01,2013-06-02 04:01:00,
2013-06-02 00:02:00,74.1,66.8,29.87,East,99,0.0,0.0,78,0.00,,---,0.00,VWS V14.01,2013-06-02 04:02:00,
2013-06-02 00:07:00,73.9,66.6,29.87,ENE,77,1.0,1.0,78,0.00,,---,0.00,VWS V14.01,2013-06-02 04:07:00,
2013-06-02 00:12:00,73.7,66.4,29.87,NE,50,0.0,0.0,78,0.00,,---,0.00,VWS V14.01,2013-06-02 04:12:00,
2013-06-02 00:17:00,73.4,66.5,29.87,NE,50,0.0,0.0,79,0.00,,---,0.00,VWS V14.01,2013-06-02 04:17:00,
2013-06-02 00:22:00,73.1,66.2,29.87,NNW,328,0.0,0.0,79,0.00,,---,0.00,VWS V14.01,2013-06-02 04:22:00,
2013-06-02 00:27:00,72.9,66.4,29.87,NNW,338,0.0,0.0,80,0.00,,---,0.00,VWS V14.01,2013-06-02 04:27:00,
2013-06-02 00:32:00,72.7,66.2,29.87,NE,39,0.0,1.0,80,0.00,,---,0.00,VWS V14.01,2013-06-02 04:32:00,
2013-06-02 00:37:00,72.6,66.1,29.87,NE,39,0.0,0.0,80,0.00,,---,0.00,VWS V14.01,2013-06-02 04:37:00,
2013-06-02 00:42:00,72.5,66.3,29.86,East,86,0.0,1.0,81,0.00,,---,0.00,VWS V14.01,2013-06-02 04:42:00,
2013-06-02 00:47:00,72.3,66.2,29.86,East,86,0.0,0.0,81,0.00,,---,0.00,VWS V14.01,2013-06-02 04:47:00,
2013-06-02 00:52:00,72.1,65.9,29.86,East,86,0.0,0.0,81,0.00,,---,0.00,VWS V14.01,2013-06-02 04:52:00,
2013-06-02 00:57:00,72.0,65.9,29.86,North,4,0.0,1.0,81,0.00,,---,0.00,VWS V14.01,2013-06-02 04:57:00,
2013-06-02 01:02:00,72.0,65.9,29.86,North,5,0.0,0.0,81,0.00,,---,0.00,VWS V14.01,2013-06-02 05:02:00,
2013-06-02 01:07:00,71.8,65.7,29.86,NNE,27,0.0,0.0,81,0.00,,---,0.00,VWS V14.01,2013-06-02 05:07:00,
2013-06-02 01:12:00,71.6,65.5,29.85,NNE,27,0.0,0.0,81,0.00,,---,0.00,VWS V14.01,2013-06-02 05:12:00,
2013-06-02 01:17:00,71.5,65.4,29.85,East,82,0.0,1.0,81,0.00,,---,0.00,VWS V14.01,2013-06-02 05:17:00,
2013-06-02 01:22:00,71.6,65.5,29.85,East,82,1.0,1.0,81,0.00,,---,0.00,VWS V14.01,2013-06-02 05:22:00,
2013-06-02 01:28:00,71.4,65.3,29.85,ENE,77,0.0,0.0,81,0.00,,---,0.00,VWS V14.01,2013-06-02 05:28:00,
2013-06-02 01:33:00,71.2,65.1,29.85,East,81,1.0,1.0,81,0.00,,---,0.00,VWS V14.01,2013-06-02 05:33:00,
2013-06-02 01:38:00,71.4,65.3,29.85,South,181,0.0,0.0,81,0.00,,---,0.00,VWS V14.01,2013-06-02 05:38:00,
2013-06-02 01:43:00,71.3,65.2,29.85,South,180,0.0,0.0,81,0.00,,---,0.00,VWS V14.01,2013-06-02 05:43:00,
2013-06-02 01:48:00,71.1,65.0,29.85,ENE,57,0.0,0.0,81,0.00,,---,0.00,VWS V14.01,2013-06-02 05:48:00,
2013-06-02 01:53:00,71.1,65.0,29.85,East,91,0.0,0.0,81,0.00,,---,0.00,VWS V14.01,2013-06-02 05:53:00,
2013-06-02 01:58:00,71.0,64.9,29.85,SE,128,0.0,0.0,81,0.00,,---,0.00,VWS V14.01,2013-06-02 05:58:00,
2013-06-02 02:03:00,70.9,64.8,29.85,South,181,0.0,0.0,81,0.00,,---,0.00,VWS V14.01,2013-06-02 06:03:00,
2013-06-02 02:08:00,70.8,64.7,29.85,South,172,0.0,0.0,81,0.00,,---,0.00,VWS V14.01,2013-06-02 06:08:00,
2013-06-02 02:13:00,70.6,64.8,29.85,South,172,0.0,0.0,82,0.00,,---,0.00,VWS V14.01,2013-06-02 06:13:00,
2013-06-02 02:18:00,70.5,64.8,29.85,ENE,67,0.0,1.0,82,0.00,,---,0.00,VWS V14.01,2013-06-02 06:18:00,
2013-06-02 02:23:00,70.4,64.7,29.84,NNE,33,0.0,1.0,82,0.00,,---,0.00,VWS V14.01,2013-06-02 06:23:00,
2013-06-02 02:28:00,70.4,64.7,29.84,ENE,65,0.0,0.0,82,0.00,,---,0.00,VWS V14.01,2013-06-02 06:28:00,
2013-06-02 02:34:00,70.3,64.6,29.84,East,79,0.0,0.0,82,0.00,,---,0.00,VWS V14.01,2013-06-02 06:34:00,
2013-06-02 02:39:00,70.1,64.4,29.83,ESE,114,0.0,0.0,82,0.00,,---,0.00,VWS V14.01,2013-06-02 06:39:00,
2013-06-02 02:44:00,70.0,64.3,29.83,ESE,114,0.0,0.0,82,0.00,,---,0.00,VWS V14.01,2013-06-02 06:44:00,
2013-06-02 02:49:00,69.8,64.4,29.83,ESE,115,0.0,0.0,83,0.00,,---,0.00,VWS V14.01,2013-06-02 06:49:00,
2013-06-02 02:54:00,69.6,64.2,29.84,SE,129,0.0,0.0,83,0.00,,---,0.00,VWS V14.01,2013-06-02 06:54:00,
2013-06-02 02:59:00,69.4,64.4,29.83,SE,128,0.0,0.0,84,0.00,,---,0.00,VWS V14.01,2013-06-02 06:59:00,
2013-06-02 03:04:00,69.2,64.2,29.83,NNW,335,0.0,0.0,84,0.00,,---,0.00,VWS V14.01,2013-06-02 07:04:00,
2013-06-02 03:09:00,69.1,64.1,29.83,NNW,336,0.0,0.0,84,0.00,,---,0.00,VWS V14.01,2013-06-02 07:09:00,
2013-06-02 03:15:00,68.9,63.9,29.83,NNW,336,0.0,0.0,84,0.00,,---,0.00,VWS V14.01,2013-06-02 07:15:00,
2013-06-02 03:20:00,68.8,64.1,29.83,NNW,335,0.0,0.0,85,0.00,,---,0.00,VWS V14.01,2013-06-02 07:20:00,
2013-06-02 03:25:00,68.6,63.9,29.84,NNW,335,0.0,0.0,85,0.00,,---,0.00,VWS V14.01,2013-06-02 07:25:00,
2013-06-02 03:30:00,68.4,63.7,29.83,NNW,335,0.0,0.0,85,0.00,,---,0.00,VWS V14.01,2013-06-02 07:30:00,
2013-06-02 03:35:00,68.5,63.8,29.84,SE,143,0.0,0.0,85,0.00,,---,0.00,VWS V14.01,2013-06-02 07:35:00,
2013-06-02 03:40:00,68.7,64.0,29.84,NE,53,0.0,0.0,85,0.00,,---,0.00,VWS V14.01,2013-06-02 07:40:00,
2013-06-02 03:45:00,68.6,63.6,29.84,NE,53,0.0,0.0,84,0.00,,---,0.00,VWS V14.01,2013-06-02 07:45:00,
2013-06-02 03:51:00,68.7,63.7,29.83,ESE,118,0.0,0.0,84,0.00,,---,0.00,VWS V14.01,2013-06-02 07:51:00,
2013-06-02 03:56:00,68.7,63.7,29.83,East,91,0.0,0.0,84,0.00,,---,0.00,VWS V14.01,2013-06-02 07:56:00,
2013-06-02 04:01:00,68.8,63.8,29.83,East,91,0.0,0.0,84,0.00,,---,0.00,VWS V14.01,2013-06-02 08:01:00,
2013-06-02 04:06:00,68.8,63.8,29.83,East,91,0.0,0.0,84,0.00,,---,0.00,VWS V14.01,2013-06-02 08:06:00,
2013-06-02 04:11:00,68.7,63.7,29.83,East,91,0.0,0.0,84,0.00,,---,0.00,VWS V14.01,2013-06-02 08:11:00,
2013-06-02 04:16:00,68.5,63.5,29.83,ESE,105,0.0,0.0,84,0.00,,---,0.00,VWS V14.01,2013-06-02 08:16:00,
2013-06-02 04:21:00,68.5,63.8,29.83,South,190,0.0,0.0,85,0.00,,---,0.00,VWS V14.01,2013-06-02 08:21:00,
2013-06-02 04:26:00,68.4,63.4,29.83,SSE,150,0.0,1.0,84,0.00,,---,0.00,VWS V14.01,2013-06-02 08:26:00,
2013-06-02 04:31:00,68.4,63.4,29.83,SSE,162,0.0,0.0,84,0.00,,---,0.00,VWS V14.01,2013-06-02 08:31:00,
2013-06-02 04:36:00,68.4,63.4,29.83,SSE,162,0.0,0.0,84,0.00,,---,0.00,VWS V14.01,2013-06-02 08:36:00,
2013-06-02 04:41:00,68.4,63.4,29.83,SE,136,0.0,0.0,84,0.00,,---,0.00,VWS V14.01,2013-06-02 08:41:00,
2013-06-02 04:46:00,68.3,63.6,29.83,SE,138,0.0,0.0,85,0.00,,---,0.00,VWS V14.01,2013-06-02 08:46:00,
2013-06-02 04:51:00,68.1,63.4,29.83,SE,136,0.0,0.0,85,0.00,,---,0.00,VWS V14.01,2013-06-02 08:51:00,
2013-06-02 04:56:00,68.0,63.3,29.82,SE,138,0.0,0.0,85,0.00,,---,0.00,VWS V14.01,2013-06-02 08:56:00,
2013-06-02 05:01:00,67.8,63.1,29.83,SE,138,0.0,0.0,85,0.00,,---,0.00,VWS V14.01,2013-06-02 09:01:00,
2013-06-02 05:06:00,67.7,63.4,29.83,SE,138,0.0,0.0,86,0.00,,---,0.00,VWS V14.01,2013-06-02 09:06:00,
2013-06-02 05:11:00,67.6,63.3,29.83,SE,136,0.0,0.0,86,0.00,,---,0.00,VWS V14.01,2013-06-02 09:11:00,
2013-06-02 05:16:00,67.5,63.2,29.83,SE,138,0.0,0.0,86,0.00,,---,0.00,VWS V14.01,2013-06-02 09:16:00,
2013-06-02 05:22:00,67.4,63.1,29.83,SE,138,0.0,0.0,86,0.00,,---,0.00,VWS V14.01,2013-06-02 09:22:00,
2013-06-02 05:27:00,67.2,62.9,29.83,SE,138,0.0,0.0,86,0.00,,---,0.00,VWS V14.01,2013-06-02 09:27:00,
2013-06-02 05:32:00,67.1,62.8,29.83,SE,138,0.0,0.0,86,0.00,,---,0.00,VWS V14.01,2013-06-02 09:32:00,
2013-06-02 05:37:00,67.1,62.5,29.83,SSE,165,0.0,0.0,85,0.00,,---,0.00,VWS V14.01,2013-06-02 09:37:00,
2013-06-02 05:42:00,67.3,62.6,29.82,SSE,165,0.0,0.0,85,0.00,,---,0.00,VWS V14.01,2013-06-02 09:42:00,
2013-06-02 05:47:00,67.4,62.7,29.83,SSE,165,0.0,0.0,85,0.00,,---,0.00,VWS V14.01,2013-06-02 09:47:00,
2013-06-02 05:52:00,67.3,63.0,29.83,SSE,165,0.0,0.0,86,0.00,,---,0.00,VWS V14.01,2013-06-02 09:52:00,
2013-06-02 05:57:00,67.2,62.9,29.83,SSE,165,0.0,0.0,86,0.00,,---,0.00,VWS V14.01,2013-06-02 09:57:00,
2013-06-02 06:03:00,67.0,63.0,29.83,SSE,165,0.0,0.0,87,0.00,,---,0.00,VWS V14.01,2013-06-02 10:03:00,
2013-06-02 06:08:00,66.9,62.9,29.83,SSE,165,0.0,0.0,87,0.00,,---,0.00,VWS V14.01,2013-06-02 10:08:00,
2013-06-02 06:13:00,66.8,62.8,29.83,SSE,165,0.0,0.0,87,0.00,,---,0.00,VWS V14.01,2013-06-02 10:13:00,
2013-06-02 06:18:00,66.8,63.1,29.83,SSE,165,0.0,0.0,88,0.00,,---,0.00,VWS V14.01,2013-06-02 10:18:00,
2013-06-02 06:23:00,66.7,63.0,29.83,SSE,165,0.0,0.0,88,0.00,,---,0.00,VWS V14.01,2013-06-02 10:23:00,
2013-06-02 06:28:00,66.8,63.1,29.83,SSE,165,0.0,0.0,88,0.00,,---,0.00,VWS V14.01,2013-06-02 10:28:00,
2013-06-02 06:33:00,66.8,63.1,29.83,SSE,165,0.0,0.0,88,0.00,,---,0.00,VWS V14.01,2013-06-02 10:33:00,
2013-06-02 06:38:00,66.9,63.6,29.83,SSE,165,0.0,0.0,89,0.00,,---,0.00,VWS V14.01,2013-06-02 10:38:00,
2013-06-02 06:43:00,66.9,63.6,29.83,SSE,165,0.0,0.0,89,0.00,,---,0.00,VWS V14.01,2013-06-02 10:43:00,
2013-06-02 06:48:00,66.9,63.6,29.83,SSE,165,0.0,0.0,89,0.00,,---,0.00,VWS V14.01,2013-06-02 10:48:00,
2013-06-02 06:53:00,67.1,63.8,29.83,SE,142,0.0,0.0,89,0.00,,---,0.00,VWS V14.01,2013-06-02 10:53:00,
2013-06-02 06:59:00,67.3,64.0,29.83,East,96,0.0,0.0,89,0.00,,---,0.00,VWS V14.01,2013-06-02 10:59:00,
2013-06-02 07:04:00,67.4,64.1,29.83,East,96,0.0,0.0,89,0.00,,---,0.00,VWS V14.01,2013-06-02 11:04:00,
2013-06-02 07:09:00,67.5,64.2,29.83,NNE,23,0.0,0.0,89,0.00,,---,0.00,VWS V14.01,2013-06-02 11:09:00,
2013-06-02 07:14:00,67.8,64.4,29.83,ENE,68,0.0,0.0,89,0.00,,---,0.00,VWS V14.01,2013-06-02 11:14:00,
2013-06-02 07:19:00,68.0,64.6,29.84,East,100,0.0,0.0,89,0.00,,---,0.00,VWS V14.01,2013-06-02 11:19:00,
2013-06-02 07:24:00,68.3,64.9,29.83,ESE,102,0.0,0.0,89,0.00,,---,0.00,VWS V14.01,2013-06-02 11:24:00,
2013-06-02 07:29:00,68.4,65.0,29.84,East,100,0.0,0.0,89,0.00,,---,0.00,VWS V14.01,2013-06-02 11:29:00,
2013-06-02 07:34:00,68.7,65.0,29.83,NE,44,0.0,1.0,88,0.00,,---,0.00,VWS V14.01,2013-06-02 11:34:00,
2013-06-02 07:39:00,69.1,65.1,29.83,NE,53,0.0,0.0,87,0.00,,---,0.00,VWS V14.01,2013-06-02 11:39:00,
2013-06-02 07:44:00,69.4,65.4,29.84,NE,39,1.0,1.0,87,0.00,,---,0.00,VWS V14.01,2013-06-02 11:44:00,
2013-06-02 07:49:00,69.7,65.3,29.84,NE,42,0.0,0.0,86,0.00,,---,0.00,VWS V14.01,2013-06-02 11:49:00,
2013-06-02 07:54:00,70.1,65.4,29.84,NNE,32,0.0,0.0,85,0.00,,---,0.00,VWS V14.01,2013-06-02 11:54:00,
2013-06-02 07:59:00,70.4,65.7,29.84,NNE,32,0.0,1.0,85,0.00,,---,0.00,VWS V14.01,2013-06-02 11:59:00,
2013-06-02 08:05:00,70.5,65.8,29.83,North,354,0.0,0.0,85,0.00,,---,0.00,VWS V14.01,2013-06-02 12:05:00,
2013-06-02 08:10:00,70.5,65.4,29.83,ENE,78,0.0,0.0,84,0.00,,---,0.00,VWS V14.01,2013-06-02 12:10:00,
2013-06-02 08:15:00,70.3,65.6,29.83,ENE,77,0.0,1.0,85,0.00,,---,0.00,VWS V14.01,2013-06-02 12:15:00,
2013-06-02 08:20:00,70.1,65.7,29.83,ENE,77,0.0,0.0,86,0.00,,---,0.00,VWS V14.01,2013-06-02 12:20:00,
2013-06-02 08:25:00,70.0,65.6,29.83,ENE,76,0.0,0.0,86,0.00,,---,0.00,VWS V14.01,2013-06-02 12:25:00,
2013-06-02 08:30:00,69.9,65.5,29.83,ENE,76,0.0,0.0,86,0.00,,---,0.00,VWS V14.01,2013-06-02 12:30:00,
2013-06-02 08:35:00,69.9,65.9,29.83,East,99,0.0,1.0,87,0.00,,---,0.00,VWS V14.01,2013-06-02 12:35:00,
2013-06-02 08:40:00,70.0,66.0,29.84,East,98,0.0,0.0,87,0.00,,---,0.00,VWS V14.01,2013-06-02 12:40:00,
2013-06-02 08:45:00,70.2,66.2,29.84,NNE,27,0.0,0.0,87,0.00,,---,0.00,VWS V14.01,2013-06-02 12:45:00,
2013-06-02 08:50:00,70.5,66.4,29.84,ENE,69,0.0,0.0,87,0.00,,---,0.00,VWS V14.01,2013-06-02 12:50:00,
2013-06-02 08:56:00,70.5,66.4,29.84,East,89,0.0,0.0,87,0.00,,---,0.00,VWS V14.01,2013-06-02 12:56:00,
2013-06-02 09:01:00,70.5,66.1,29.84,ESE,105,1.0,1.0,86,0.00,,---,0.00,VWS V14.01,2013-06-02 13:01:00,
2013-06-02 09:06:00,70.4,66.3,29.84,ESE,104,0.0,0.0,87,0.00,,---,0.00,VWS V14.01,2013-06-02 13:06:00,
2013-06-02 09:11:00,70.4,66.3,29.84,ESE,105,0.0,0.0,87,0.00,,---,0.00,VWS V14.01,2013-06-02 13:11:00,
2013-06-02 09:16:00,70.4,66.7,29.84,ESE,105,0.0,0.0,88,0.00,,---,0.00,VWS V14.01,2013-06-02 13:16:00,
2013-06-02 09:21:00,70.3,66.6,29.85,ESE,105,0.0,0.0,88,0.00,,---,0.00,VWS V14.01,2013-06-02 13:21:00,
2013-06-02 09:26:00,70.3,66.6,29.84,ESE,105,0.0,1.0,88,0.00,,---,0.00,VWS V14.01,2013-06-02 13:26:00,
2013-06-02 09:31:00,70.3,66.9,29.84,ESE,105,0.0,0.0,89,0.00,,---,0.00,VWS V14.01,2013-06-02 13:31:00,
2013-06-02 09:36:00,70.4,67.0,29.84,ESE,105,0.0,0.0,89,0.00,,---,0.00,VWS V14.01,2013-06-02 13:36:00,
2013-06-02 09:41:00,70.5,67.1,29.84,ESE,105,0.0,0.0,89,0.00,,---,0.00,VWS V14.01,2013-06-02 13:41:00,
2013-06-02 09:46:00,70.7,67.6,29.84,ESE,105,0.0,0.0,90,0.00,,---,0.00,VWS V14.01,2013-06-02 13:46:00,
2013-06-02 09:51:00,70.8,67.7,29.84,ESE,105,0.0,0.0,90,0.00,,---,0.00,VWS V14.01,2013-06-02 13:51:00,
2013-06-02 09:56:00,70.9,67.5,29.84,ESE,105,0.0,0.0,89,0.00,,---,0.00,VWS V14.01,2013-06-02 13:56:00,
2013-06-02 10:01:00,70.9,67.5,29.85,ESE,103,0.0,0.0,89,0.00,,---,0.00,VWS V14.01,2013-06-02 14:01:00,
2013-06-02 10:06:00,70.8,67.4,29.85,ESE,103,0.0,0.0,89,0.00,,---,0.00,VWS V14.01,2013-06-02 14:06:00,
2013-06-02 10:12:00,70.5,67.1,29.85,ESE,103,0.0,0.0,89,0.00,,---,0.00,VWS V14.01,2013-06-02 14:12:00,
2013-06-02 10:17:00,70.4,67.0,29.85,ESE,103,0.0,0.0,89,0.00,,---,0.00,VWS V14.01,2013-06-02 14:17:00,
2013-06-02 10:22:00,70.3,66.9,29.86,ESE,103,0.0,0.0,89,0.00,,---,0.00,VWS V14.01,2013-06-02 14:22:00,
2013-06-02 10:27:00,70.3,67.2,29.85,ESE,105,0.0,0.0,90,0.00,,---,0.00,VWS V14.01,2013-06-02 14:27:00,
2013-06-02 10:32:00,70.5,67.4,29.85,ESE,103,0.0,0.0,90,0.00,,---,0.00,VWS V14.01,2013-06-02 14:32:00,
2013-06-02 10:37:00,70.9,67.8,29.85,ESE,109,0.0,0.0,90,0.00,,---,0.00,VWS V14.01,2013-06-02 14:37:00,
2013-06-02 10:42:00,71.3,67.9,29.85,NW,322,0.0,1.0,89,0.00,,---,0.00,VWS V14.01,2013-06-02 14:42:00,
2013-06-02 10:47:00,71.5,68.1,29.85,ENE,62,0.0,0.0,89,0.00,,---,0.00,VWS V14.01,2013-06-02 14:47:00,
2013-06-02 10:52:00,71.5,68.1,29.84,ESE,105,0.0,1.0,89,0.00,,---,0.00,VWS V14.01,2013-06-02 14:52:00,
2013-06-02 10:57:00,71.2,67.8,29.85,ENE,60,0.0,0.0,89,0.00,,---,0.00,VWS V14.01,2013-06-02 14:57:00,
2013-06-02 11:02:00,71.1,67.7,29.85,ENE,67,0.0,1.0,89,0.00,,---,0.00,VWS V14.01,2013-06-02 15:02:00,
2013-06-02 11:07:00,70.9,67.2,29.86,NE,52,0.0,0.0,88,0.00,,---,0.00,VWS V14.01,2013-06-02 15:07:00,
2013-06-02 11:12:00,70.9,67.5,29.86,NE,53,0.0,0.0,89,0.00,,---,0.00,VWS V14.01,2013-06-02 15:12:00,
2013-06-02 11:18:00,70.8,67.7,29.86,ENE,62,0.0,0.0,90,0.00,,---,0.00,VWS V14.01,2013-06-02 15:18:00,
2013-06-02 11:23:00,70.6,67.2,29.85,ENE,67,0.0,0.0,89,0.00,,---,0.00,VWS V14.01,2013-06-02 15:23:00,
2013-06-02 11:28:00,70.5,67.4,29.85,ENE,67,0.0,0.0,90,0.00,,---,0.00,VWS V14.01,2013-06-02 15:28:00,
2013-06-02 11:33:00,70.4,67.3,29.85,SE,142,0.0,0.0,90,0.00,,---,0.00,VWS V14.01,2013-06-02 15:33:00,
2013-06-02 11:38:00,70.3,66.9,29.85,ENE,58,0.0,0.0,89,0.00,,---,0.00,VWS V14.01,2013-06-02 15:38:00,
2013-06-02 11:43:00,70.3,66.9,29.85,NE,36,0.0,1.0,89,0.00,,---,0.00,VWS V14.01,2013-06-02 15:43:00,
2013-06-02 11:48:00,70.3,67.2,29.85,NE,52,0.0,2.0,90,0.00,,---,0.00,VWS V14.01,2013-06-02 15:48:00,
2013-06-02 11:54:00,70.3,67.2,29.86,ENE,70,0.0,0.0,90,0.00,,---,0.00,VWS V14.01,2013-06-02 15:54:00,
2013-06-02 11:59:00,70.3,67.2,29.86,ESE,121,0.0,0.0,90,0.00,,---,0.00,VWS V14.01,2013-06-02 15:59:00,
2013-06-02 12:04:00,70.4,67.0,29.85,NE,50,0.0,0.0,89,0.00,,---,0.00,VWS V14.01,2013-06-02 16:04:00,
2013-06-02 12:09:00,70.6,67.2,29.86,NE,50,0.0,0.0,89,0.00,,---,0.00,VWS V14.01,2013-06-02 16:09:00,
2013-06-02 12:14:00,70.7,67.3,29.86,South,181,0.0,0.0,89,0.00,,---,0.00,VWS V14.01,2013-06-02 16:14:00,
2013-06-02 12:19:00,71.0,67.9,29.86,South,187,0.0,0.0,90,0.00,,---,0.00,VWS V14.01,2013-06-02 16:19:00,
2013-06-02 12:24:00,71.2,68.1,29.86,NNE,32,0.0,0.0,90,0.00,,---,0.00,VWS V14.01,2013-06-02 16:24:00,
2013-06-02 12:29:00,71.5,67.8,29.87,NE,56,1.0,1.0,88,0.00,,---,0.00,VWS V14.01,2013-06-02 16:29:00,
2013-06-02 12:34:00,72.0,68.3,29.87,NNW,333,2.0,3.0,88,0.00,,---,0.00,VWS V14.01,2013-06-02 16:34:00,
2013-06-02 12:40:00,72.7,68.6,29.86,ESE,103,1.0,1.0,87,0.00,,---,0.00,VWS V14.01,2013-06-02 16:40:00,
2013-06-02 12:45:00,73.4,69.3,29.86,SSE,156,1.0,1.0,87,0.00,,---,0.00,VWS V14.01,2013-06-02 16:45:00,
2013-06-02 12:50:00,74.2,69.4,29.86,NE,50,0.0,0.0,85,0.00,,---,0.00,VWS V14.01,2013-06-02 16:50:00,
2013-06-02 12:55:00,75.1,69.9,29.85,East,91,1.0,1.0,84,0.00,,---,0.00,VWS V14.01,2013-06-02 16:55:00,
2013-06-02 13:00:00,75.6,70.1,29.86,ENE,77,0.0,1.0,83,0.00,,---,0.00,VWS V14.01,2013-06-02 17:00:00,
2013-06-02 13:05:00,75.8,69.9,29.85,East,86,0.0,0.0,82,0.00,,---,0.00,VWS V14.01,2013-06-02 17:05:00,
2013-06-02 13:10:00,76.0,70.1,29.86,East,79,0.0,0.0,82,0.00,,---,0.00,VWS V14.01,2013-06-02 17:10:00,
2013-06-02 13:15:00,75.9,70.0,29.85,East,79,0.0,0.0,82,0.00,,---,0.00,VWS V14.01,2013-06-02 17:15:00,
2013-06-02 13:20:00,75.9,70.0,29.86,NE,37,0.0,0.0,82,0.00,,---,0.00,VWS V14.01,2013-06-02 17:20:00,
2013-06-02 13:25:00,76.4,70.5,29.85,East,100,0.0,0.0,82,0.00,,---,0.00,VWS V14.01,2013-06-02 17:25:00,
2013-06-02 13:30:00,76.6,70.0,29.85,NE,56,1.0,1.0,80,0.00,,---,0.00,VWS V14.01,2013-06-02 17:30:00,
2013-06-02 13:35:00,76.4,70.1,29.85,SE,132,1.0,1.0,81,0.00,,---,0.00,VWS V14.01,2013-06-02 17:35:00,
2013-06-02 13:40:00,76.1,69.8,29.85,ENE,61,0.0,0.0,81,0.00,,---,0.00,VWS V14.01,2013-06-02 17:40:00,
2013-06-02 13:45:00,76.2,69.9,29.85,East,80,1.0,1.0,81,0.00,,---,0.00,VWS V14.01,2013-06-02 17:45:00,
2013-06-02 13:50:00,76.1,69.5,29.85,ENE,72,0.0,1.0,80,0.00,,---,0.00,VWS V14.01,2013-06-02 17:50:00,
2013-06-02 13:55:00,76.2,69.9,29.85,SE,125,0.0,0.0,81,0.00,,---,0.00,VWS V14.01,2013-06-02 17:55:00,
2013-06-02 14:00:00,76.9,70.6,29.85,East,91,0.0,1.0,81,0.00,,---,0.00,VWS V14.01,2013-06-02 18:00:00,
2013-06-02 14:05:00,77.5,70.5,29.84,WSW,246,0.0,1.0,79,0.00,,---,0.00,VWS V14.01,2013-06-02 18:05:00,
2013-06-02 14:10:00,77.8,70.8,29.84,NE,34,1.0,1.0,79,0.00,,---,0.00,VWS V14.01,2013-06-02 18:10:00,
2013-06-02 14:16:00,77.4,70.4,29.84,East,84,0.0,0.0,79,0.00,,---,0.00,VWS V14.01,2013-06-02 18:16:00,
2013-06-02 14:21:00,77.4,70.8,29.84,NE,52,0.0,0.0,80,0.00,,---,0.00,VWS V14.01,2013-06-02 18:21:00,
2013-06-02 14:26:00,77.5,71.6,29.84,North,354,0.0,1.0,82,0.00,,---,0.00,VWS V14.01,2013-06-02 18:26:00,
2013-06-02 14:31:00,77.3,71.0,29.84,NE,46,0.0,0.0,81,0.00,,---,0.00,VWS V14.01,2013-06-02 18:31:00,
2013-06-02 14:36:00,77.1,70.5,29.84,SE,143,0.0,0.0,80,0.00,,---,0.00,VWS V14.01,2013-06-02 18:36:00,
2013-06-02 14:41:00,77.0,70.7,29.84,ENE,69,0.0,2.0,81,0.00,,---,0.00,VWS V14.01,2013-06-02 18:41:00,
2013-06-02 14:46:00,76.7,70.8,29.84,SE,142,0.0,0.0,82,0.00,,---,0.00,VWS V14.01,2013-06-02 18:46:00,
2013-06-02 14:51:00,76.6,70.7,29.84,ENE,58,0.0,1.0,82,0.00,,---,0.00,VWS V14.01,2013-06-02 18:51:00,
2013-06-02 14:56:00,76.4,70.1,29.84,NE,56,0.0,0.0,81,0.00,,---,0.00,VWS V14.01,2013-06-02 18:56:00,
2013-06-02 15:01:00,76.2,70.7,29.84,NE,56,0.0,0.0,83,0.00,,---,0.00,VWS V14.01,2013-06-02 19:01:00,
2013-06-02 15:06:00,75.8,70.3,29.83,ENE,57,0.0,0.0,83,0.00,,---,0.00,VWS V14.01,2013-06-02 19:06:00,
2013-06-02 15:11:00,75.2,70.0,29.83,ENE,61,0.0,0.0,84,0.00,,---,0.00,VWS V14.01,2013-06-02 19:11:00,
2013-06-02 15:16:00,74.6,69.8,29.84,East,98,0.0,1.0,85,0.01,,---,0.01,VWS V14.01,2013-06-02 19:16:00,
2013-06-02 15:21:00,74.1,69.7,29.84,ESE,119,0.0,0.0,86,0.01,,---,0.01,VWS V14.01,2013-06-02 19:21:00,
2013-06-02 15:26:00,73.7,69.6,29.84,SE,132,0.0,1.0,87,0.01,,---,0.01,VWS V14.01,2013-06-02 19:26:00,
2013-06-02 15:31:00,73.3,69.9,29.83,ENE,75,0.0,0.0,89,0.01,,---,0.01,VWS V14.01,2013-06-02 19:31:00,
2013-06-02 15:36:00,73.1,70.0,29.83,North,8,0.0,0.0,90,0.01,,---,0.01,VWS V14.01,2013-06-02 19:36:00,
2013-06-02 15:42:00,72.7,69.6,29.83,NW,322,1.0,1.0,90,0.01,,---,0.01,VWS V14.01,2013-06-02 19:42:00,
2013-06-02 15:47:00,72.6,69.5,29.83,North,4,1.0,1.0,90,0.01,,---,0.01,VWS V14.01,2013-06-02 19:47:00,
2013-06-02 15:52:00,72.4,69.6,29.83,North,4,0.0,0.0,91,0.01,,---,0.01,VWS V14.01,2013-06-02 19:52:00,
2013-06-02 15:57:00,72.3,69.8,29.82,North,4,0.0,0.0,92,0.02,,---,0.02,VWS V14.01,2013-06-02 19:57:00,
2013-06-02 16:02:00,72.2,70.1,29.83,East,93,0.0,0.0,93,0.03,,---,0.03,VWS V14.01,2013-06-02 20:02:00,
2013-06-02 16:07:00,72.2,70.1,29.83,East,94,0.0,0.0,93,0.03,,---,0.03,VWS V14.01,2013-06-02 20:07:00,
2013-06-02 16:12:00,72.0,69.9,29.83,East,91,0.0,0.0,93,0.03,,---,0.03,VWS V14.01,2013-06-02 20:12:00,
2013-06-02 16:17:00,72.0,69.9,29.83,NNW,342,1.0,1.0,93,0.02,,---,0.03,VWS V14.01,2013-06-02 20:17:00,
2013-06-02 16:22:00,71.9,69.8,29.83,WNW,290,0.0,0.0,93,0.02,,---,0.03,VWS V14.01,2013-06-02 20:22:00,
2013-06-02 16:27:00,72.0,70.2,29.83,WNW,287,0.0,0.0,94,0.02,,---,0.03,VWS V14.01,2013-06-02 20:27:00,
2013-06-02 16:32:00,72.1,70.3,29.83,WNW,297,0.0,0.0,94,0.02,,---,0.03,VWS V14.01,2013-06-02 20:32:00,
2013-06-02 16:37:00,72.0,69.9,29.83,WNW,294,0.0,0.0,93,0.02,,---,0.03,VWS V14.01,2013-06-02 20:37:00,
2013-06-02 16:42:00,72.1,70.0,29.83,SSE,152,0.0,0.0,93,0.02,,---,0.03,VWS V14.01,2013-06-02 20:42:00,
2013-06-02 16:47:00,72.2,70.1,29.83,ESE,110,0.0,0.0,93,0.02,,---,0.03,VWS V14.01,2013-06-02 20:47:00,
2013-06-02 16:52:00,72.2,69.8,29.82,NE,55,0.0,0.0,92,0.02,,---,0.03,VWS V14.01,2013-06-02 20:52:00,
2013-06-02 16:57:00,72.0,69.6,29.82,SE,143,0.0,0.0,92,0.01,,---,0.03,VWS V14.01,2013-06-02 20:57:00,
2013-06-02 17:02:00,71.8,69.3,29.82,ESE,123,0.0,0.0,92,0.00,,---,0.03,VWS V14.01,2013-06-02 21:02:00,
2013-06-02 17:08:00,71.8,69.7,29.82,ESE,122,1.0,1.0,93,0.00,,---,0.03,VWS V14.01,2013-06-02 21:08:00,
2013-06-02 17:13:00,71.6,69.5,29.82,ESE,122,0.0,0.0,93,0.00,,---,0.03,VWS V14.01,2013-06-02 21:13:00,
2013-06-02 17:18:00,71.4,69.3,29.83,WNW,289,0.0,1.0,93,0.00,,---,0.03,VWS V14.01,2013-06-02 21:18:00,
2013-06-02 17:23:00,71.4,69.6,29.83,North,5,0.0,0.0,94,0.00,,---,0.03,VWS V14.01,2013-06-02 21:23:00,
2013-06-02 17:28:00,71.3,69.5,29.83,NNE,15,0.0,0.0,94,0.00,,---,0.03,VWS V14.01,2013-06-02 21:28:00,
2013-06-02 17:33:00,71.1,69.0,29.83,NE,39,0.0,1.0,93,0.00,,---,0.03,VWS V14.01,2013-06-02 21:33:00,
2013-06-02 17:38:00,70.9,68.8,29.83,NNW,343,1.0,2.0,93,0.00,,---,0.03,VWS V14.01,2013-06-02 21:38:00,
2013-06-02 17:43:00,70.7,68.6,29.83,East,82,0.0,0.0,93,0.00,,---,0.03,VWS V14.01,2013-06-02 21:43:00,
2013-06-02 17:49:00,70.4,68.0,29.82,NE,39,0.0,0.0,92,0.00,,---,0.03,VWS V14.01,2013-06-02 21:49:00,
2013-06-02 17:54:00,70.4,68.3,29.82,NE,39,0.0,0.0,93,0.00,,---,0.03,VWS V14.01,2013-06-02 21:54:00,
2013-06-02 17:59:00,70.4,68.6,29.82,ESE,108,0.0,0.0,94,0.00,,---,0.03,VWS V14.01,2013-06-02 21:59:00,
2013-06-02 18:04:00,70.2,68.1,29.82,ESE,108,0.0,0.0,93,0.00,,---,0.03,VWS V14.01,2013-06-02 22:04:00,
2013-06-02 18:09:00,70.0,67.9,29.82,SSE,150,0.0,0.0,93,0.00,,---,0.03,VWS V14.01,2013-06-02 22:09:00,
2013-06-02 18:14:00,69.9,68.1,29.82,SSE,150,0.0,0.0,94,0.00,,---,0.03,VWS V14.01,2013-06-02 22:14:00,
2013-06-02 18:19:00,69.9,68.1,29.81,SE,143,0.0,0.0,94,0.00,,---,0.03,VWS V14.01,2013-06-02 22:19:00,
2013-06-02 18:24:00,69.8,68.0,29.81,SE,143,0.0,0.0,94,0.00,,---,0.03,VWS V14.01,2013-06-02 22:24:00,
2013-06-02 18:29:00,69.8,68.0,29.82,SE,144,0.0,0.0,94,0.00,,---,0.03,VWS V14.01,2013-06-02 22:29:00,
2013-06-02 18:34:00,69.8,68.0,29.82,SE,143,0.0,0.0,94,0.00,,---,0.03,VWS V14.01,2013-06-02 22:34:00,
2013-06-02 18:39:00,69.7,67.9,29.82,SE,143,0.0,0.0,94,0.00,,---,0.03,VWS V14.01,2013-06-02 22:39:00,
2013-06-02 18:44:00,69.7,68.2,29.82,SE,144,0.0,0.0,95,0.00,,---,0.03,VWS V14.01,2013-06-02 22:44:00,
2013-06-02 18:50:00,69.6,68.1,29.82,SE,144,0.0,0.0,95,0.00,,---,0.03,VWS V14.01,2013-06-02 22:50:00,
2013-06-02 18:55:00,69.5,68.0,29.82,SE,143,0.0,0.0,95,0.00,,---,0.03,VWS V14.01,2013-06-02 22:55:00,
2013-06-02 19:00:00,69.5,68.0,29.82,SSW,204,0.0,0.0,95,0.00,,---,0.03,VWS V14.01,2013-06-02 23:00:00,
2013-06-02 19:05:00,69.3,67.5,29.82,North,11,0.0,1.0,94,0.00,,---,0.03,VWS V14.01,2013-06-02 23:05:00,
2013-06-02 19:10:00,69.4,67.6,29.82,ESE,106,0.0,0.0,94,0.00,,---,0.03,VWS V14.01,2013-06-02 23:10:00,
2013-06-02 19:15:00,69.4,67.6,29.82,NE,40,1.0,1.0,94,0.00,,---,0.03,VWS V14.01,2013-06-02 23:15:00,
2013-06-02 19:20:00,69.4,67.3,29.82,NE,43,0.0,0.0,93,0.00,,---,0.03,VWS V14.01,2013-06-02 23:20:00,
2013-06-02 19:25:00,69.4,66.3,29.82,NNW,345,0.0,1.0,90,0.00,,---,0.03,VWS V14.01,2013-06-02 23:25:00,
2013-06-02 19:30:00,69.7,66.6,29.82,NW,322,0.0,1.0,90,0.00,,---,0.03,VWS V14.01,2013-06-02 23:30:00,
2013-06-02 19:35:00,69.8,66.4,29.81,NW,323,0.0,0.0,89,0.00,,---,0.03,VWS V14.01,2013-06-02 23:35:00,
2013-06-02 19:40:00,69.9,67.5,29.81,NW,321,0.0,0.0,92,0.00,,---,0.03,VWS V14.01,2013-06-02 23:40:00,
2013-06-02 19:45:00,69.6,66.9,29.80,SW,215,0.0,0.0,91,0.00,,---,0.03,VWS V14.01,2013-06-02 23:45:00,
2013-06-02 19:50:00,69.3,66.2,29.80,SW,215,0.0,0.0,90,0.00,,---,0.03,VWS V14.01,2013-06-02 23:50:00,
2013-06-02 19:55:00,69.0,66.3,29.81,SW,218,0.0,0.0,91,0.00,,---,0.03,VWS V14.01,2013-06-02 23:55:00,
2013-06-02 20:00:00,68.8,66.1,29.81,ESE,113,0.0,0.0,91,0.00,,---,0.03,VWS V14.01,2013-06-03 00:00:00,
2013-06-02 20:06:00,68.7,66.0,29.81,ESE,113,0.0,0.0,91,0.00,,---,0.03,VWS V14.01,2013-06-03 00:06:00,
2013-06-02 20:11:00,68.6,65.9,29.81,ESE,110,0.0,0.0,91,0.00,,---,0.03,VWS V14.01,2013-06-03 00:11:00,
2013-06-02 20:16:00,68.5,65.5,29.81,ESE,110,0.0,0.0,90,0.00,,---,0.03,VWS V14.01,2013-06-03 00:16:00,
2013-06-02 20:22:00,68.4,65.7,29.81,SSE,155,0.0,0.0,91,0.00,,---,0.03,VWS V14.01,2013-06-03 00:22:00,
2013-06-02 20:27:00,68.3,65.3,29.81,SSE,155,0.0,0.0,90,0.00,,---,0.03,VWS V14.01,2013-06-03 00:27:00,
2013-06-02 20:32:00,68.4,65.4,29.82,SSE,158,0.0,0.0,90,0.00,,---,0.03,VWS V14.01,2013-06-03 00:32:00,
2013-06-02 20:37:00,68.4,65.0,29.83,NW,316,0.0,1.0,89,0.00,,---,0.03,VWS V14.01,2013-06-03 00:37:00,
2013-06-02 20:42:00,68.6,65.2,29.83,NW,316,0.0,0.0,89,0.00,,---,0.03,VWS V14.01,2013-06-03 00:42:00,
2013-06-02 20:47:00,68.9,65.2,29.83,ESE,117,0.0,0.0,88,0.00,,---,0.03,VWS V14.01,2013-06-03 00:47:00,
2013-06-02 20:52:00,69.0,65.3,29.83,ESE,103,0.0,0.0,88,0.00,,---,0.03,VWS V14.01,2013-06-03 00:52:00,
2013-06-02 20:57:00,69.1,65.4,29.83,ESE,120,0.0,0.0,88,0.00,,---,0.03,VWS V14.01,2013-06-03 00:57:00,
2013-06-02 21:02:00,69.0,65.6,29.83,SE,143,0.0,0.0,89,0.00,,---,0.03,VWS V14.01,2013-06-03 01:02:00,
2013-06-02 21:07:00,68.8,65.8,29.83,SE,142,0.0,1.0,90,0.00,,---,0.03,VWS V14.01,2013-06-03 01:07:00,
2013-06-02 21:12:00,68.4,65.7,29.83,SE,143,0.0,0.0,91,0.00,,---,0.03,VWS V14.01,2013-06-03 01:12:00,
2013-06-02 21:17:00,68.2,65.5,29.83,North,351,0.0,0.0,91,0.00,,---,0.03,VWS V14.01,2013-06-03 01:17:00,
2013-06-02 21:22:00,68.3,65.6,29.84,NNW,331,0.0,0.0,91,0.00,,---,0.03,VWS V14.01,2013-06-03 01:22:00,
2013-06-02 21:27:00,68.3,65.6,29.84,NNW,331,0.0,0.0,91,0.00,,---,0.03,VWS V14.01,2013-06-03 01:27:00,
2013-06-02 21:32:00,68.4,65.7,29.84,NNW,332,0.0,0.0,91,0.00,,---,0.03,VWS V14.01,2013-06-03 01:32:00,
2013-06-02 21:37:00,68.3,65.6,29.84,NNW,332,0.0,0.0,91,0.00,,---,0.03,VWS V14.01,2013-06-03 01:37:00,
2013-06-02 21:43:00,68.3,65.6,29.84,NW,315,0.0,0.0,91,0.00,,---,0.03,VWS V14.01,2013-06-03 01:43:00,
2013-06-02 21:48:00,68.2,65.8,29.84,NW,313,0.0,0.0,92,0.00,,---,0.03,VWS V14.01,2013-06-03 01:48:00,
2013-06-02 21:53:00,68.1,65.7,29.84,NW,313,0.0,0.0,92,0.00,,---,0.03,VWS V14.01,2013-06-03 01:53:00,
2013-06-02 21:58:00,67.9,65.5,29.84,NW,314,0.0,0.0,92,0.00,,---,0.03,VWS V14.01,2013-06-03 01:58:00,
2013-06-02 22:03:00,67.8,65.7,29.84,SSW,204,0.0,0.0,93,0.00,,---,0.03,VWS V14.01,2013-06-03 02:03:00,
2013-06-02 22:08:00,67.7,65.9,29.84,SSE,163,0.0,0.0,94,0.00,,---,0.03,VWS V14.01,2013-06-03 02:08:00,
2013-06-02 22:13:00,67.7,65.9,29.84,SSE,153,0.0,0.0,94,0.00,,---,0.03,VWS V14.01,2013-06-03 02:13:00,
2013-06-02 22:19:00,67.7,65.9,29.84,SSE,152,0.0,0.0,94,0.00,,---,0.03,VWS V14.01,2013-06-03 02:19:00,
2013-06-02 22:24:00,67.6,65.8,29.84,ENE,68,0.0,1.0,94,0.00,,---,0.03,VWS V14.01,2013-06-03 02:24:00,
2013-06-02 22:29:00,67.6,65.8,29.84,SE,144,0.0,1.0,94,0.00,,---,0.03,VWS V14.01,2013-06-03 02:29:00,
2013-06-02 22:34:00,67.6,65.8,29.84,WNW,293,0.0,0.0,94,0.00,,---,0.03,VWS V14.01,2013-06-03 02:34:00,
2013-06-02 22:39:00,67.6,65.8,29.84,South,169,0.0,0.0,94,0.00,,---,0.03,VWS V14.01,2013-06-03 02:39:00,
2013-06-02 22:44:00,67.6,65.8,29.84,SSE,167,0.0,0.0,94,0.00,,---,0.03,VWS V14.01,2013-06-03 02:44:00,
2013-06-02 22:49:00,67.5,66.0,29.84,SE,134,0.0,0.0,95,0.00,,---,0.03,VWS V14.01,2013-06-03 02:49:00,
2013-06-02 22:54:00,67.5,66.0,29.84,SE,131,0.0,0.0,95,0.00,,---,0.03,VWS V14.01,2013-06-03 02:54:00,
2013-06-02 22:59:00,67.4,65.9,29.85,SE,133,0.0,0.0,95,0.00,,---,0.03,VWS V14.01,2013-06-03 02:59:00,
2013-06-02 23:04:00,67.4,65.9,29.85,ESE,105,0.0,0.0,95,0.00,,---,0.03,VWS V14.01,2013-06-03 03:04:00,
2013-06-02 23:09:00,67.4,65.9,29.85,East,82,0.0,0.0,95,0.00,,---,0.03,VWS V14.01,2013-06-03 03:09:00,
2013-06-02 23:14:00,67.3,65.8,29.84,North,359,0.0,0.0,95,0.00,,---,0.03,VWS V14.01,2013-06-03 03:14:00,
2013-06-02 23:19:00,67.3,66.1,29.84,North,359,0.0,0.0,96,0.00,,---,0.03,VWS V14.01,2013-06-03 03:19:00,
2013-06-02 23:24:00,67.2,66.0,29.84,North,359,0.0,0.0,96,0.00,,---,0.03,VWS V14.01,2013-06-03 03:24:00,
2013-06-02 23:30:00,67.2,66.0,29.85,North,359,0.0,0.0,96,0.00,,---,0.03,VWS V14.01,2013-06-03 03:30:00,
2013-06-02 23:35:00,67.1,65.9,29.85,North,358,0.0,0.0,96,0.01,,---,0.04,VWS V14.01,2013-06-03 03:35:00,
2013-06-02 23:40:00,67.0,65.8,29.85,North,360,0.0,0.0,96,0.02,,---,0.05,VWS V14.01,2013-06-03 03:40:00,
2013-06-02 23:45:00,66.9,65.7,29.85,NNW,328,1.0,1.0,96,0.04,,---,0.07,VWS V14.01,2013-06-03 03:45:00,
2013-06-02 23:50:00,66.8,65.6,29.85,NNE,20,0.0,0.0,96,0.08,,---,0.11,VWS V14.01,2013-06-03 03:50:00,
2013-06-02 23:55:00,66.8,65.6,29.85,NNW,333,0.0,1.0,96,0.10,,---,0.13,VWS V14.01,2013-06-03 03:55:00,